Location: Breitenfeld
(46.8500°N, 15.6333°E)
Time: 03:49:22
(UTC+00:00)

ISS - Visible Passes

Search period start: 30 November 2022 00:00
Search period end: 10 December 2022 00:00
Orbit: 411 x 420 km, 51.6° (Epoch: 29 November)

Date Brightness Start Highest point End Pass type
(mag) Time Alt. Az. Time Alt. Az. Time Alt. Az.
30 Nov -2.9 16:03:31 10° WNW 16:06:38 35° N 16:09:05 14° ENE visible
30 Nov -1.8 17:40:20 10° WNW 17:41:58 26° WNW 17:41:58 26° WNW visible
01 Dec -3.6 16:51:36 10° WNW 16:54:53 55° NNE 16:55:20 49° NE visible
02 Dec -3.3 16:02:49 10° WNW 16:06:02 43° NNE 16:08:46 13° E visible
02 Dec -2.0 17:39:35 10° WNW 17:41:39 32° W 17:41:39 32° W visible
03 Dec -3.8 16:50:44 10° WNW 16:54:04 81° SSW 16:55:12 38° SE visible
04 Dec -3.8 16:01:54 10° WNW 16:05:15 71° NNE 16:08:33 10° ESE visible
04 Dec -1.6 17:39:01 10° W 17:41:42 23° SW 17:41:49 23° SW visible
05 Dec -2.3 16:49:54 10° WNW 16:52:59 36° SW 16:55:46 12° SSE visible
06 Dec -3.1 16:00:54 10° WNW 16:04:11 57° SSW 16:07:27 10° SE visible
07 Dec -0.7 16:49:30 10° W 16:51:36 16° SW 16:53:42 10° S visible
08 Dec -1.3 16:00:03 10° W 16:02:52 25° SW 16:05:38 10° SSE visible
